﻿測定場所 (Monitoring sites),日付 (Measurement date),時間 (Measurement time),線量率 最大値 (max) μGy/h,線量率 最小値 (min) μGy/h,線量率 平均値 (average) μGy/h,
調布 (Chofu),2016-09-25,23:01～24:00,0.0300,0.0264,0.0284,
調布 (Chofu),2016-09-25,22:01～23:00,0.0307,0.0262,0.0283,
調布 (Chofu),2016-09-25,21:01～22:00,0.0299,0.0263,0.0280,
調布 (Chofu),2016-09-25,20:01～21:00,0.0302,0.0258,0.0280,
調布 (Chofu),2016-09-25,19:01～20:00,0.0291,0.0260,0.0277,
調布 (Chofu),2016-09-25,18:01～19:00,0.0299,0.0258,0.0276,
調布 (Chofu),2016-09-25,17:01～18:00,0.0297,0.0261,0.0279,
調布 (Chofu),2016-09-25,16:01～17:00,0.0295,0.0263,0.0278,
調布 (Chofu),2016-09-25,15:01～16:00,0.0304,0.0257,0.0282,
調布 (Chofu),2016-09-25,14:01～15:00,0.0297,0.0263,0.0281,
調布 (Chofu),2016-09-25,13:01～14:00,0.0302,0.0265,0.0283,
調布 (Chofu),2016-09-25,12:01～13:00,0.0309,0.0264,0.0282,
調布 (Chofu),2016-09-25,11:01～12:00,0.0307,0.0265,0.0283,
調布 (Chofu),2016-09-25,10:01～11:00,0.0302,0.0266,0.0286,
調布 (Chofu),2016-09-25,09:01～10:00,0.0306,0.0265,0.0286,
調布 (Chofu),2016-09-25,08:01～09:00,0.0303,0.0271,0.0287,
調布 (Chofu),2016-09-25,07:01～08:00,0.0310,0.0275,0.0288,
調布 (Chofu),2016-09-25,06:01～07:00,0.0306,0.0271,0.0286,
調布 (Chofu),2016-09-25,05:01～06:00,0.0308,0.0266,0.0284,
調布 (Chofu),2016-09-25,04:01～05:00,0.0309,0.0266,0.0288,
調布 (Chofu),2016-09-25,03:01～04:00,0.0318,0.0262,0.0286,
調布 (Chofu),2016-09-25,02:01～03:00,0.0306,0.0266,0.0288,
調布 (Chofu),2016-09-25,01:01～02:00,0.0302,0.0268,0.0287,
調布 (Chofu),2016-09-25,00:01～01:00,0.0315,0.0270,0.0292,
調布 (Chofu),2016-09-24,23:01～24:00,0.0307,0.0265,0.0284,
調布 (Chofu),2016-09-24,22:01～23:00,0.0301,0.0268,0.0284,
調布 (Chofu),2016-09-24,21:01～22:00,0.0305,0.0259,0.0281,
調布 (Chofu),2016-09-24,20:01～21:00,0.0297,0.0263,0.0281,
調布 (Chofu),2016-09-24,19:01～20:00,0.0299,0.0265,0.0283,
調布 (Chofu),2016-09-24,18:01～19:00,0.0321,0.0269,0.0294,
調布 (Chofu),2016-09-24,17:01～18:00,0.0339,0.0289,0.0314,
調布 (Chofu),2016-09-24,16:01～17:00,0.0374,0.0322,0.0343,
調布 (Chofu),2016-09-24,15:01～16:00,0.0402,0.0338,0.0364,
調布 (Chofu),2016-09-24,14:01～15:00,0.0458,0.0367,0.0400,
調布 (Chofu),2016-09-24,13:01～14:00,0.0402,0.0303,0.0350,
調布 (Chofu),2016-09-24,12:01～13:00,0.0311,0.0261,0.0290,
調布 (Chofu),2016-09-24,11:01～12:00,0.0303,0.0272,0.0286,
調布 (Chofu),2016-09-24,10:01～11:00,0.0307,0.0269,0.0287,
調布 (Chofu),2016-09-24,09:01～10:00,0.0299,0.0268,0.0285,
調布 (Chofu),2016-09-24,08:01～09:00,0.0307,0.0268,0.0287,
調布 (Chofu),2016-09-24,07:01～08:00,0.0306,0.0268,0.0288,
調布 (Chofu),2016-09-24,06:01～07:00,0.0305,0.0273,0.0289,
調布 (Chofu),2016-09-24,05:01～06:00,0.0313,0.0271,0.0287,
調布 (Chofu),2016-09-24,04:01～05:00,0.0305,0.0264,0.0284,
調布 (Chofu),2016-09-24,03:01～04:00,0.0304,0.0267,0.0283,
調布 (Chofu),2016-09-24,02:01～03:00,0.0306,0.0264,0.0281,
調布 (Chofu),2016-09-24,01:01～02:00,0.0296,0.0268,0.0281,
調布 (Chofu),2016-09-24,00:01～01:00,0.0305,0.0261,0.0279,
調布 (Chofu),2016-09-23,23:01～24:00,0.0297,0.0261,0.0279,
調布 (Chofu),2016-09-23,22:01～23:00,0.0301,0.0264,0.0283,
調布 (Chofu),2016-09-23,21:01～22:00,0.0300,0.0264,0.0280,
調布 (Chofu),2016-09-23,20:01～21:00,0.0311,0.0263,0.0282,
調布 (Chofu),2016-09-23,19:01～20:00,0.0306,0.0265,0.0284,
調布 (Chofu),2016-09-23,18:01～19:00,0.0315,0.0272,0.0293,
調布 (Chofu),2016-09-23,17:01～18:00,0.0317,0.0272,0.0295,
調布 (Chofu),2016-09-23,16:01～17:00,0.0303,0.0269,0.0285,
調布 (Chofu),2016-09-23,15:01～16:00,0.0306,0.0258,0.0284,
調布 (Chofu),2016-09-23,14:01～15:00,0.0318,0.0267,0.0294,
調布 (Chofu),2016-09-23,13:01～14:00,0.0334,0.0294,0.0310,
調布 (Chofu),2016-09-23,12:01～13:00,0.0337,0.0276,0.0299,
調布 (Chofu),2016-09-23,11:01～12:00,0.0314,0.0257,0.0278,
調布 (Chofu),2016-09-23,10:01～11:00,0.0299,0.0259,0.0279,
調布 (Chofu),2016-09-23,09:01～10:00,0.0297,0.0260,0.0283,
調布 (Chofu),2016-09-23,08:01～09:00,0.0317,0.0281,0.0296,
調布 (Chofu),2016-09-23,07:01～08:00,0.0354,0.0297,0.0323,
調布 (Chofu),2016-09-23,06:01～07:00,0.0357,0.0318,0.0335,
調布 (Chofu),2016-09-23,05:01～06:00,0.0358,0.0309,0.0336,
調布 (Chofu),2016-09-23,04:01～05:00,0.0400,0.0330,0.0355,
調布 (Chofu),2016-09-23,03:01～04:00,0.0388,0.0335,0.0360,
調布 (Chofu),2016-09-23,02:01～03:00,0.0362,0.0290,0.0316,
調布 (Chofu),2016-09-23,01:01～02:00,0.0314,0.0262,0.0289,
調布 (Chofu),2016-09-23,00:01～01:00,0.0308,0.0267,0.0283,
調布 (Chofu),2016-09-22,23:01～24:00,0.0301,0.0268,0.0283,
調布 (Chofu),2016-09-22,22:01～23:00,0.0304,0.0267,0.0288,
調布 (Chofu),2016-09-22,21:01～22:00,0.0311,0.0270,0.0290,
調布 (Chofu),2016-09-22,20:01～21:00,0.0307,0.0267,0.0286,
調布 (Chofu),2016-09-22,19:01～20:00,0.0300,0.0268,0.0285,
調布 (Chofu),2016-09-22,18:01～19:00,0.0309,0.0271,0.0289,
調布 (Chofu),2016-09-22,17:01～18:00,0.0316,0.0277,0.0297,
調布 (Chofu),2016-09-22,16:01～17:00,0.0299,0.0263,0.0284,
調布 (Chofu),2016-09-22,15:01～16:00,0.0309,0.0274,0.0289,
調布 (Chofu),2016-09-22,14:01～15:00,0.0337,0.0287,0.0311,
調布 (Chofu),2016-09-22,13:01～14:00,0.0399,0.0316,0.0345,
調布 (Chofu),2016-09-22,12:01～13:00,0.0414,0.0350,0.0373,
調布 (Chofu),2016-09-22,11:01～12:00,0.0451,0.0365,0.0411,
調布 (Chofu),2016-09-22,10:01～11:00,0.0424,0.0329,0.0367,
調布 (Chofu),2016-09-22,09:01～10:00,0.0429,0.0366,0.0392,
調布 (Chofu),2016-09-22,08:01～09:00,0.0426,0.0348,0.0383,
調布 (Chofu),2016-09-22,07:01～08:00,0.0389,0.0324,0.0350,
調布 (Chofu),2016-09-22,06:01～07:00,0.0372,0.0311,0.0344,
調布 (Chofu),2016-09-22,05:01～06:00,0.0398,0.0327,0.0364,
調布 (Chofu),2016-09-22,04:01～05:00,0.0369,0.0322,0.0346,
調布 (Chofu),2016-09-22,03:01～04:00,0.0343,0.0274,0.0311,
調布 (Chofu),2016-09-22,02:01～03:00,0.0315,0.0261,0.0287,
調布 (Chofu),2016-09-22,01:01～02:00,0.0299,0.0267,0.0284,
調布 (Chofu),2016-09-22,00:01～01:00,0.0303,0.0264,0.0286,
調布 (Chofu),2016-09-21,23:01～24:00,0.0303,0.0267,0.0288,
調布 (Chofu),2016-09-21,22:01～23:00,0.0314,0.0274,0.0296,
調布 (Chofu),2016-09-21,21:01～22:00,0.0312,0.0277,0.0294,
調布 (Chofu),2016-09-21,20:01～21:00,0.0306,0.0251,0.0283,
調布 (Chofu),2016-09-21,19:01～20:00,0.0298,0.0268,0.0281,
調布 (Chofu),2016-09-21,18:01～19:00,0.0298,0.0260,0.0280,
調布 (Chofu),2016-09-21,17:01～18:00,0.0297,0.0258,0.0280,
調布 (Chofu),2016-09-21,16:01～17:00,0.0295,0.0264,0.0280,
調布 (Chofu),2016-09-21,15:01～16:00,0.0292,0.0262,0.0279,
調布 (Chofu),2016-09-21,14:01～15:00,0.0307,0.0264,0.0280,
調布 (Chofu),2016-09-21,13:01～14:00,0.0300,0.0266,0.0280,
調布 (Chofu),2016-09-21,12:01～13:00,0.0302,0.0263,0.0282,
調布 (Chofu),2016-09-21,11:01～12:00,0.0301,0.0259,0.0281,
調布 (Chofu),2016-09-21,10:01～11:00,0.0309,0.0264,0.0284,
調布 (Chofu),2016-09-21,09:01～10:00,0.0301,0.0267,0.0282,
調布 (Chofu),2016-09-21,08:01～09:00,0.0301,0.0264,0.0282,
調布 (Chofu),2016-09-21,07:01～08:00,0.0302,0.0264,0.0282,
調布 (Chofu),2016-09-21,06:01～07:00,0.0307,0.0261,0.0283,
調布 (Chofu),2016-09-21,05:01～06:00,0.0299,0.0262,0.0282,
調布 (Chofu),2016-09-21,04:01～05:00,0.0302,0.0263,0.0282,
調布 (Chofu),2016-09-21,03:01～04:00,0.0297,0.0260,0.0282,
調布 (Chofu),2016-09-21,02:01～03:00,0.0302,0.0267,0.0281,
調布 (Chofu),2016-09-21,01:01～02:00,0.0315,0.0269,0.0292,
調布 (Chofu),2016-09-21,00:01～01:00,0.0369,0.0288,0.0326,
調布 (Chofu),2016-09-20,23:01～24:00,0.0419,0.0350,0.0376,
調布 (Chofu),2016-09-20,22:01～23:00,0.0467,0.0374,0.0423,
調布 (Chofu),2016-09-20,21:01～22:00,0.0513,0.0425,0.0470,
調布 (Chofu),2016-09-20,20:01～21:00,0.0515,0.0430,0.0467,
調布 (Chofu),2016-09-20,19:01～20:00,0.0565,0.0474,0.0508,
調布 (Chofu),2016-09-20,18:01～19:00,0.0584,0.0507,0.0539,
調布 (Chofu),2016-09-20,17:01～18:00,0.0549,0.0452,0.0503,
調布 (Chofu),2016-09-20,16:01～17:00,0.0518,0.0414,0.0471,
調布 (Chofu),2016-09-20,15:01～16:00,0.0477,0.0395,0.0434,
調布 (Chofu),2016-09-20,14:01～15:00,0.0485,0.0380,0.0430,
調布 (Chofu),2016-09-20,13:01～14:00,0.0467,0.0369,0.0417,
調布 (Chofu),2016-09-20,12:01～13:00,0.0447,0.0364,0.0396,
調布 (Chofu),2016-09-20,11:01～12:00,0.0420,0.0358,0.0385,
調布 (Chofu),2016-09-20,10:01～11:00,0.0429,0.0363,0.0400,
調布 (Chofu),2016-09-20,09:01～10:00,0.0408,0.0346,0.0373,
調布 (Chofu),2016-09-20,08:01～09:00,0.0396,0.0314,0.0351,
調布 (Chofu),2016-09-20,07:01～08:00,0.0392,0.0323,0.0350,
調布 (Chofu),2016-09-20,06:01～07:00,0.0419,0.0352,0.0373,
調布 (Chofu),2016-09-20,05:01～06:00,0.0419,0.0356,0.0384,
調布 (Chofu),2016-09-20,04:01～05:00,0.0426,0.0353,0.0383,
調布 (Chofu),2016-09-20,03:01～04:00,0.0401,0.0343,0.0372,
調布 (Chofu),2016-09-20,02:01～03:00,0.0403,0.0328,0.0367,
調布 (Chofu),2016-09-20,01:01～02:00,0.0360,0.0318,0.0339,
調布 (Chofu),2016-09-20,00:01～01:00,0.0366,0.0331,0.0349,
調布 (Chofu),2016-09-19,23:01～24:00,0.0398,0.0346,0.0365,
調布 (Chofu),2016-09-19,22:01～23:00,0.0385,0.0334,0.0356,
調布 (Chofu),2016-09-19,21:01～22:00,0.0401,0.0344,0.0371,
調布 (Chofu),2016-09-19,20:01～21:00,0.0392,0.0336,0.0364,
調布 (Chofu),2016-09-19,19:01～20:00,0.0468,0.0381,0.0425,
調布 (Chofu),2016-09-19,18:01～19:00,0.0479,0.0395,0.0430,
調布 (Chofu),2016-09-19,17:01～18:00,0.0462,0.0389,0.0418,
調布 (Chofu),2016-09-19,16:01～17:00,0.0461,0.0361,0.0412,
調布 (Chofu),2016-09-19,15:01～16:00,0.0429,0.0334,0.0383,
調布 (Chofu),2016-09-19,14:01～15:00,0.0367,0.0314,0.0345,
調布 (Chofu),2016-09-19,13:01～14:00,0.0369,0.0309,0.0342,
調布 (Chofu),2016-09-19,12:01～13:00,0.0354,0.0295,0.0326,
調布 (Chofu),2016-09-19,11:01～12:00,0.0351,0.0304,0.0325,
調布 (Chofu),2016-09-19,10:01～11:00,0.0339,0.0285,0.0312,
調布 (Chofu),2016-09-19,09:01～10:00,0.0311,0.0274,0.0289,
調布 (Chofu),2016-09-19,08:01～09:00,0.0307,0.0270,0.0291,
調布 (Chofu),2016-09-19,07:01～08:00,0.0313,0.0265,0.0289,
調布 (Chofu),2016-09-19,06:01～07:00,0.0305,0.0268,0.0286,
調布 (Chofu),2016-09-19,05:01～06:00,0.0302,0.0267,0.0284,
調布 (Chofu),2016-09-19,04:01～05:00,0.0311,0.0263,0.0288,
調布 (Chofu),2016-09-19,03:01～04:00,0.0310,0.0277,0.0294,
調布 (Chofu),2016-09-19,02:01～03:00,0.0308,0.0273,0.0294,
調布 (Chofu),2016-09-19,01:01～02:00,0.0312,0.0272,0.0291,
調布 (Chofu),2016-09-19,00:01～01:00,0.0323,0.0278,0.0296,
